Regional Weather Roundup
Issued by NWS

Home | Current Version | Previous Version | Graphics & Text | Print | Product List | Glossary On
Versions: 1 2 3 4 5 6 7 8 9 10 11 12 13 14 15 16 17 18 19 20 21 22 23 24 25 26 27 28 29 30 31 32 33 34 35 36 37 38 39 40 41 42 43 44 45 46 47 48 49 50
000
ASUS45 KABQ 291810
RWRNM
NEW MEXICO REGIONAL WEATHER ROUNDUP
NATIONAL WEATHER SERVICE ALBUQUERQUE NM
1200 PM MDT FRI MAY 29 2015

NOTE: "FAIR" MEANS FEW OR NO CLOUDS BELOW 12,000 FEET AGL WITH NO
       SIGNIFICANT WEATHER OR OBSTRUCTIONS TO VISION.

      THIS PRODUCT IS RELEASED AS TWO VERSIONS.  ONE VERSION NEAR
      THE TOP OF THE HOUR CONTAINING PRELIMINARY DATA FROM ALBUQUERQUE
      AND OTHER STATIONS.  A FINAL VERSION WITH ADDITIONAL DATA IS
      ISSUED ABOUT 10 MINUTES AFTER THE HOUR.

NMZ501-503-504-510>518-291900-
NORTHWEST PLATEAU/NORTHCENTRAL MOUNTAINS

CITY           SKY/WX    TMP DP  RH WIND       PRES   REMARKS
FARMINGTON     SUNNY     72  35  25 MISG      30.19F
6HR MIN TEMP:  44; 6HR MAX TEMP:  72;

LOS ALAMOS     MOSUNNY   64  32  30 SE7       30.27S
SANTA FE       MOSUNNY   71  32  23 SW8       30.20F
6HR MIN TEMP:  47; 6HR MAX TEMP:  72;

TAOS           SUNNY     66  28  24 NW9       30.25S
ANGEL FIRE     FAIR      60  27  28 SW13      30.30S

$$
NMZ402-403-502-505>509-291900-
WESTCENTRAL MOUNTAINS/SOUTHWEST MOUNTAINS

CITY           SKY/WX    TMP DP  RH WIND       PRES   REMARKS
GALLUP         PTSUNNY   69  32  25 MISG      30.25F
6HR MIN TEMP:  41; 6HR MAX TEMP:  72;

GRANTS         CLOUDY    73  30  20 NE6       30.25F
SILVER CITY      N/A     81  19  10 SW7       30.18S

$$
NMZ407-409-411-412-291900-
SOUTHERN DESERTS

CITY           SKY/WX    TMP DP  RH WIND       PRES   REMARKS
LORDSBURG      FAIR      84  27  12 NW10G16   30.10S
DEMING         SUNNY     88  21   8 W8        30.08F
6HR MIN TEMP:  53; 6HR MAX TEMP:  89;

LAS CRUCES     SUNNY     87  27  11 E5        30.08F
HOLLOMAN AFB   SUNNY     88  23   9 VRB6G16   30.04S
ALAMOGORDO     SUNNY     86  27  11 CALM      30.06S
T OR C         SUNNY     84  29  13 VRB7      30.10F
6HR MIN TEMP:  59; 6HR MAX TEMP:  84;


$$
NMZ519>523-291900-
CENTRAL VALLEYS/CENTRAL HIGHLANDS

CITY           SKY/WX    TMP DP  RH WIND       PRES   REMARKS
ALBUQUERQUE    PTSUNNY   76  35  22 N8        30.17F
6HR MIN TEMP:  60; 6HR MAX TEMP:  76;

DOUBLE EAGLE   PTSUNNY  N/A N/A N/A NW5       30.20F
MORIARTY ARPT  FAIR      75  32  20 W10       30.20F
6HR MIN TEMP:  44; 6HR MAX TEMP:  75;

CLINES CORNERS MOSUNNY   73  33  23 W15G22    30.22F
6HR MIN TEMP:  44; 6HR MAX TEMP:  73;

BELEN          FAIR      78  32  18 NE5       30.16F
6HR MIN TEMP:  54; 6HR MAX TEMP:  78;

SOCORRO        FAIR      78  32  18 N7        30.13S
6HR MIN TEMP:  58; 6HR MAX TEMP:  79;


$$
NMZ524>526-539-540-291900-
SOUTHCENTRAL MOUNTAINS

CITY           SKY/WX    TMP DP  RH WIND       PRES   REMARKS
RUIDOSO        MOSUNNY   73  23  15 NW9       30.23S

$$
NMZ527>531-291900-
NORTHEAST HIGHLANDS/NORTHEAST PLAINS

CITY           SKY/WX    TMP DP  RH WIND       PRES   REMARKS
LAS VEGAS      MOSUNNY   71  38  29 S13G20    30.19F
6HR MIN TEMP:  43; 6HR MAX TEMP:  71;

RATON          SUNNY     71  38  29 MISG      30.16F
6HR MIN TEMP:  48; 6HR MAX TEMP:  71;

CLAYTON        SUNNY     70  50  49 NE13G20   30.15S
6HR MIN TEMP:  52; 6HR MAX TEMP:  70;


$$
NMZ532>537-291900-
EASTCENTRAL PLAINS

CITY           SKY/WX    TMP DP  RH WIND       PRES   REMARKS
TUCUMCARI      SUNNY     75  53  46 NE9       30.08F
6HR MIN TEMP:  52; 6HR MAX TEMP:  75;

CANNON AFB     MOSUNNY   73  55  53 N8        30.08F
6HR MIN TEMP:  53; 6HR MAX TEMP:  73;

CLOVIS AIRPORT   N/A     75  52  43 N6        30.09

$$
NMZ028-029-538-291900-
SOUTHEAST PLAINS

CITY           SKY/WX    TMP DP  RH WIND       PRES   REMARKS
ROSWELL        MOSUNNY   78  51  38 NE5       30.05F
6HR MIN TEMP:  56; 6HR MAX TEMP:  79;

ARTESIA        SUNNY     79  54  41 NE7       30.05F
CARLSBAD       SUNNY     80  54  40 VRB6      30.02F
6HR MIN TEMP:  54; 6HR MAX TEMP:  81;

HOBBS          SUNNY     77  57  50 N7        30.05S


$$


USA.gov is the U.S. government's official web portal to all federal, state and local government web resources and services.